Temp
72 72 72 74 75 74 74 74 73 72 73 74 74 74 73 72 72 70 69 68 67 66 65 65 66 65 66 66 67 69 68 68 66 64 65 66 67 68 69 69 70 70 70
72 72 72 73 74 75 75 75 75 74 74 74 74 74 73 72 72 70 68 69 67 66 65 64 65 67 65 65 66 66 67 66 65 62 63 65 66 66 67 67 68 71 71
72 73 73 74 74 75 75 76 75 75 74 74 74 73 73 72 71 71 69 68 67 67 65 64 65 64 64 64 64 64 65 65 65 65 62 63 64 65 66 65 65 66 72
73 73 72 73 74 76 76 76 75 75 75 74 74 74 73 73 72 71 69 68 67 66 65 65 65 64 64 64 64 63 63 63 63 64 63 63 64 62 63 64 64 65 66
73 73 75 76 77 76 76 76 76 75 75 75 74 74 75 73 72 70 69 68 66 65 65 65 66 66 68 65 65 62 63 63 64 64 63 63 63 62 63 62 62 63 64
74 74 76 75 75 75 76 76 76 75 74 74 74 74 73 73 70 69 70 67 66 65 64 64 65 69 69 67 67 66 65 63 62 64 62 63 61 61 60 61 61 62 63
74 74 74 74 74 75 75 75 75 74 74 74 74 73 73 72 67 68 69 66 64 65 65 65 66 69 67 67 67 66 67 67 68 65 63 63 61 61 60 59 60 60 62
74 75 75 74 74 74 75 75 75 75 74 74 74 74 73 71 66 66 67 65 64 66 66 65 66 65 66 66 66 65 66 68 68 69 67 66 66 62 64 64 62 60 61
75 76 76 76 75 74 74 74 75 74 74 74 74 74 73 71 64 65 66 66 66 65 65 66 63 64 63 64 65 64 63 65 65 64 64 64 63 63 64 64 63 63 63
76 76 76 75 75 74 74 74 74 74 74 74 74 74 71 73 63 64 65 67 64 63 62 63 64 62 62 62 64 63 63 64 66 65 65 64 64 65 64 66 64 64 62
76 76 75 75 73 73 73 74 74 73 73 73 73 73 73 72 66 62 63 66 64 62 61 61 61 62 59 59 61 64 66 63 65 65 65 65 65 65 66 65 64 66 63
74 73 72 72 73 73 72 72 71 72 71 71 72 72 71 69 62 59 60 62 64 64 62 62 61 58 57 57 60 61 60 63 65 63 63 63 64 65 65 65 63 64 65
72 70 69 70 72 72 72 71 70 70 70 71 71 71 68 65 64 59 59 59 60 65 64 63 60 56 56 57 60 60 60 65 64 63 63 64 65 67 66 64 63 62 62
69 68 68 69 69 71 71 71 70 70 71 70 70 69 69 65 65 63 60 60 60 62 61 62 63 61 60 62 62 62 65 65 64 65 65 67 66 64 64 65 64 62 63
68 68 67 68 70 70 71 70 70 70 69 71 71 71 68 65 65 60 59 61 62 60 59 61 63 62 61 62 63 64 64 63 62 63 63 64 64 64 63 63 63 61 63
68 68 67 68 69 69 69 69 58 56 53 52 51 58 70 62 56 53 51 51 53 53 59 62 63 63 62 63 63 62 63 62 62 61 63 64 62 64 64 62 62 62 62
66 67 67 64 68 68 68 68 67 65 53 51 49 49 49 57 51 50 49 49 50 53 60 63 64 64 65 65 65 63 62 62 62 62 63 63 62 64 63 63 62 62 62
68 60 66 68 68 67 68 68 67 66 66 67 56 52 50 47 47 47 47 49 52 54 59 61 61 65 66 66 66 64 63 62 60 61 62 62 61 63 63 63 62 63 62
67 68 68 67 67 65 66 66 66 66 66 66 67 55 52 46 45 45 46 60 58 56 59 61 62 64 67 67 66 65 64 62 62 60 60 61 61 62 63 64 64 56 57
67 63 62 64 63 63 63 64 64 65 65 66 65 65 60 53 57 56 53 58 60 58 59 60 62 62 63 66 66 63 60 60 62 62 62 62 62 64 65 64 64 62 60
64 64 62 63 63 62 62 63 64 64 65 65 66 65 55 61 61 60 56 57 62 62 60 61 62 62 61 62 65 63 62 59 58 57 58 61 63 63 65 65 63 62 64
62 62 62 62 62 62 63 63 63 64 65 64 66 65 50 60 64 62 61 60 61 64 64 63 62 63 63 62 62 61 61 61 60 59 60 63 63 65 64 64 63 63 63
61 61 61 61 61 60 60 61 62 63 64 64 64 64 63 61 62 63 63 63 63 63 64 64 63 63 63 63 63 62 60 60 59 60 61 63 64 63 63 63 63 62 62
60 59 59 60 60 59 60 60 61 56 60 62 63 63 62 62 62 62 63 63 63 63 63 63 64 64 63 62 62 62 62 61 60 60 64 65 64 58 64 64 63 63 63
61 61 61 60 61 61 60 60 61 62 62 62 62 63 63 63 62 61 61 61 62 62 62 62 63 64 63 63 62 62 56 46 58 56 65 66 65 63 64 65 65 63 61
60 61 61 62 61 60 59 59 60 61 60 61 62 64 63 62 61 60 61 61 60 60 60 60 61 62 62 62 62 56 42 43 51 47 65 66 65 64 65 65 62 62 62
MSLP
1013.78 1014.55 1014.28 1014.25 1014.34 1014.80 1015.20 1015.60 1015.90 1016.25 1016.49 1016.67 1017.06 1017.37 1017.79 1018.05 1018.27 1018.70 1019.11 1019.41 1019.68 1019.79 1019.99 1020.20 1020.40 1020.46 1020.59 1020.61 1020.59 1020.76 1021.11 1021.41 1022.37 1023.64 1023.88 1023.97 1023.96 1023.82 1023.82 1023.89 1023.84 1023.89 1024.11
1011.83 1013.50 1013.50 1013.85 1014.13 1014.29 1014.74 1014.97 1015.41 1015.79 1016.05 1016.38 1016.71 1017.04 1017.39 1017.53 1017.93 1018.41 1018.80 1019.16 1019.58 1019.81 1019.94 1020.07 1020.20 1020.37 1020.46 1020.57 1020.72 1020.87 1020.98 1021.37 1021.95 1022.91 1023.68 1023.84 1023.89 1023.92 1023.96 1023.92 1023.91 1023.81 1023.88
1011.65 1012.08 1012.63 1013.21 1013.25 1013.57 1013.95 1014.31 1014.65 1015.09 1015.41 1015.84 1016.19 1016.45 1016.77 1017.03 1017.49 1017.83 1018.17 1018.43 1018.87 1019.23 1019.55 1019.76 1019.90 1020.07 1020.23 1020.41 1020.72 1020.96 1021.22 1021.54 1021.73 1022.15 1023.21 1023.80 1024.18 1024.18 1024.19 1024.24 1024.36 1024.24 1023.93
1011.71 1012.03 1012.33 1012.25 1012.45 1012.92 1013.25 1013.61 1013.88 1014.09 1014.49 1014.93 1015.38 1015.64 1015.96 1016.46 1016.85 1017.38 1017.86 1018.22 1018.59 1018.87 1019.20 1019.33 1019.50 1019.74 1019.91 1020.04 1020.33 1020.79 1021.09 1021.35 1021.69 1022.09 1022.89 1023.60 1024.05 1024.51 1024.48 1024.51 1024.70 1024.62 1024.51
1010.96 1011.45 1011.35 1011.57 1012.18 1012.53 1012.82 1012.97 1013.11 1013.40 1013.63 1013.87 1014.38 1014.76 1015.08 1015.59 1016.01 1016.49 1016.87 1017.39 1018.09 1018.56 1018.83 1019.05 1019.17 1019.15 1019.34 1019.60 1019.81 1020.35 1020.83 1021.19 1021.67 1022.15 1022.84 1023.36 1023.74 1024.28 1024.51 1024.74 1025.01 1025.01 1024.99
1010.52 1010.84 1011.04 1011.31 1011.62 1011.89 1012.05 1012.20 1012.47 1012.67 1012.90 1013.23 1013.47 1013.78 1014.34 1014.75 1015.13 1015.69 1016.20 1016.96 1017.45 1018.11 1018.47 1018.69 1018.93 1019.07 1019.03 1019.43 1019.57 1019.88 1020.08 1020.79 1021.65 1022.29 1022.81 1023.04 1023.52 1023.84 1024.44 1024.42 1024.92 1025.14 1025.17
1011.07 1011.08 1011.21 1011.34 1011.36 1011.40 1011.47 1011.53 1011.68 1011.87 1012.17 1012.29 1012.53 1013.05 1013.58 1014.00 1014.95 1016.35 1017.27 1016.83 1017.13 1017.43 1018.00 1018.29 1018.59 1018.72 1018.87 1019.11 1019.65 1019.72 1020.15 1020.48 1020.44 1021.09 1022.07 1022.67 1023.15 1023.42 1023.75 1024.17 1024.60 1024.75 1024.85
1010.83 1010.93 1010.88 1011.04 1011.05 1010.89 1011.01 1010.98 1011.06 1011.33 1011.37 1011.40 1011.71 1012.09 1012.62 1013.03 1013.34 1014.40 1013.96 1014.20 1015.75 1016.52 1017.36 1017.73 1018.31 1018.80 1019.19 1018.97 1019.05 1019.76 1020.01 1020.37 1020.81 1021.07 1021.23 1021.83 1022.32 1023.08 1023.07 1023.39 1024.13 1024.49 1024.82
1010.60 1010.64 1010.66 1010.65 1010.67 1010.63 1010.75 1010.69 1010.65 1010.85 1010.95 1011.07 1011.14 1011.47 1011.67 1012.41 1012.76 1013.45 1013.91 1014.96 1015.14 1015.67 1016.68 1017.57 1018.19 1018.52 1019.27 1019.79 1019.65 1019.61 1019.98 1020.31 1020.77 1021.03 1021.24 1021.73 1022.17 1022.83 1023.08 1023.52 1024.22 1024.25 1024.41
1010.37 1010.34 1010.18 1010.24 1010.47 1010.47 1010.44 1010.49 1010.44 1010.50 1010.43 1010.60 1010.69 1010.75 1010.95 1011.36 1012.05 1012.84 1013.52 1014.16 1014.49 1015.37 1016.14 1017.04 1017.25 1016.88 1018.71 1019.27 1019.34 1019.64 1019.47 1020.03 1020.44 1021.19 1021.65 1022.01 1022.40 1022.67 1022.92 1023.14 1023.62 1023.93 1024.29
1010.31 1010.15 1010.17 1010.22 1010.34 1010.45 1010.43 1010.28 1010.29 1010.33 1010.41 1010.43 1010.51 1010.61 1010.67 1010.91 1011.49 1012.23 1012.98 1013.27 1013.62 1014.63 1015.61 1016.17 1016.64 1016.26 1017.36 1018.48 1018.78 1018.84 1018.80 1019.15 1020.13 1020.71 1021.33 1021.88 1022.25 1022.46 1022.45 1023.07 1023.28 1023.42 1023.83
1010.29 1010.26 1010.22 1010.21 1010.27 1010.41 1010.43 1010.16 1010.11 1010.21 1010.25 1010.28 1010.33 1010.34 1010.50 1010.80 1011.14 1011.78 1012.29 1012.44 1013.11 1013.65 1014.15 1014.97 1015.80 1016.23 1017.01 1017.84 1018.47 1018.64 1018.85 1019.13 1019.69 1020.54 1021.25 1021.63 1021.83 1022.12 1022.19 1022.56 1023.00 1023.21 1023.17
1010.49 1010.38 1010.29 1010.13 1010.07 1010.11 1010.23 1010.15 1010.15 1010.07 1010.08 1009.98 1010.02 1010.03 1010.27 1010.74 1011.05 1011.49 1011.93 1012.38 1012.83 1013.37 1013.76 1014.22 1015.15 1015.94 1016.62 1017.25 1017.90 1018.08 1018.37 1018.93 1019.41 1020.09 1020.54 1020.93 1021.15 1021.21 1021.74 1022.32 1022.74 1023.09 1023.07
1010.47 1010.35 1010.34 1010.26 1010.01 1009.93 1009.94 1009.91 1009.99 1009.96 1009.87 1009.89 1009.83 1009.89 1010.07 1010.47 1010.81 1011.16 1011.65 1012.29 1012.82 1013.29 1013.69 1014.19 1014.69 1015.39 1016.11 1016.69 1017.57 1017.90 1017.83 1018.17 1018.63 1019.10 1019.78 1020.21 1020.75 1021.22 1021.38 1021.79 1022.27 1022.70 1022.65
1010.51 1010.39 1010.27 1010.14 1009.84 1009.72 1009.57 1009.48 1009.49 1009.27 1009.31 1009.36 1009.40 1009.49 1009.70 1010.09 1010.26 1010.74 1011.25 1011.69 1012.01 1012.41 1013.15 1014.05 1014.58 1015.29 1015.87 1016.51 1016.97 1017.37 1017.70 1017.91 1018.16 1018.61 1019.33 1020.00 1020.39 1020.75 1021.03 1021.35 1021.66 1022.13 1022.15
1010.31 1010.02 1009.92 1009.89 1009.59 1009.38 1009.26 1009.12 1008.99 1009.02 1009.21 1009.35 1009.42 1009.48 1009.01 1008.94 1009.29 1009.84 1010.30 1010.76 1011.28 1011.95 1012.83 1013.21 1013.58 1014.28 1014.76 1015.33 1015.87 1016.51 1017.15 1017.32 1017.37 1017.87 1018.49 1019.46 1019.93 1020.26 1020.40 1020.77 1021.12 1021.39 1021.55
1010.03 1009.81 1009.75 1009.56 1009.29 1009.02 1008.89 1008.95 1008.80 1008.53 1008.66 1008.65 1008.75 1008.86 1008.89 1008.76 1008.87 1009.07 1009.55 1010.27 1010.82 1011.67 1011.67 1011.85 1012.33 1012.93 1013.45 1014.01 1014.62 1015.22 1015.89 1016.52 1016.81 1017.08 1017.57 1018.69 1019.34 1019.73 1020.02 1020.07 1020.50 1020.85 1021.06
1009.47 1009.43 1009.40 1009.20 1008.96 1008.80 1008.71 1008.59 1008.64 1008.70 1008.58 1008.25 1007.99 1008.31 1008.33 1008.43 1008.52 1008.64 1008.94 1009.86 1011.11 1011.33 1011.10 1011.04 1011.19 1011.52 1012.10 1012.63 1013.31 1014.01 1014.81 1015.60 1016.25 1016.43 1017.16 1017.95 1018.53 1019.02 1019.33 1019.48 1019.86 1020.15 1020.52
1009.38 1009.27 1009.17 1008.96 1008.70 1008.58 1008.46 1008.35 1008.33 1008.26 1008.12 1007.89 1007.77 1007.92 1007.87 1008.15 1008.16 1008.45 1008.92 1009.07 1009.37 1009.78 1009.91 1010.07 1010.23 1010.51 1010.65 1011.28 1012.02 1012.94 1013.62 1014.29 1015.03 1015.73 1016.35 1017.39 1017.68 1018.28 1018.52 1018.61 1018.98 1019.47 1019.83
1009.34 1009.28 1009.15 1008.91 1008.64 1008.49 1008.37 1008.18 1007.93 1007.73 1007.43 1007.17 1007.02 1007.06 1007.27 1007.84 1008.01 1008.06 1008.14 1008.11 1007.93 1008.11 1008.43 1008.79 1009.06 1009.35 1009.71 1010.06 1010.81 1011.76 1012.75 1013.29 1014.03 1014.62 1015.24 1016.19 1016.55 1017.14 1017.57 1017.75 1018.25 1018.81 1019.09
1009.62 1009.34 1009.13 1008.89 1008.68 1008.48 1008.22 1007.90 1007.49 1007.13 1006.73 1006.37 1005.99 1006.12 1006.18 1006.67 1006.66 1006.62 1006.80 1006.72 1006.61 1006.61 1006.65 1007.19 1007.65 1008.04 1008.49 1009.09 1009.62 1010.49 1011.29 1012.19 1012.83 1013.64 1014.69 1015.11 1015.57 1016.22 1016.57 1016.80 1017.35 1017.89 1018.25
1009.84 1009.63 1009.35 1009.08 1008.69 1008.26 1007.82 1007.42 1006.96 1006.47 1005.97 1005.56 1005.13 1005.13 1005.47 1005.52 1005.38 1005.31 1005.32 1005.29 1005.33 1005.35 1005.54 1006.00 1006.44 1006.79 1007.03 1007.53 1008.10 1008.87 1009.75 1010.71 1011.76 1012.49 1013.49 1014.37 1014.47 1015.01 1015.53 1016.07 1016.63 1017.12 1017.65
1009.95 1009.68 1009.32 1008.94 1008.57 1008.08 1007.57 1007.07 1006.46 1005.79 1005.09 1004.57 1004.20 1004.08 1004.17 1004.13 1004.16 1004.03 1003.74 1003.76 1004.02 1004.26 1004.55 1004.65 1004.87 1005.30 1005.71 1006.07 1006.53 1007.11 1007.88 1008.82 1009.70 1011.25 1012.12 1012.97 1013.35 1013.89 1014.57 1015.15 1015.74 1016.43 1017.03
1010.07 1009.79 1009.43 1008.92 1008.34 1007.80 1007.11 1006.33 1005.65 1005.01 1004.38 1003.70 1003.13 1002.78 1002.73 1002.73 1002.72 1002.73 1002.59 1002.57 1002.75 1002.76 1003.05 1003.20 1003.24 1003.59 1004.11 1004.59 1005.26 1005.85 1006.57 1007.60 1008.77 1010.11 1010.57 1011.50 1012.03 1012.83 1013.50 1014.28 1014.87 1015.45 1016.09
1010.09 1009.61 1009.10 1008.60 1007.86 1007.06 1006.15 1005.27 1004.45 1003.70 1002.95 1002.31 1001.79 1001.47 1001.36 1001.36 1001.39 1001.45 1001.52 1001.64 1001.65 1001.50 1001.54 1001.60 1001.67 1001.79 1002.33 1002.94 1003.70 1004.61 1005.68 1006.85 1007.79 1009.10 1009.53 1010.21 1010.77 1011.62 1012.44 1013.31 1014.05 1014.90 1015.71
1009.94 1009.47 1008.96 1008.33 1007.54 1006.71 1005.72 1004.57 1003.36 1002.41 1001.68 1001.04 1000.60 1000.15 1000.07 1000.09 1000.18 1000.28 1000.35 1000.43 1000.41 1000.33 1000.27 1000.30 1000.28 1000.45 1000.87 1001.67 1002.43 1003.41 1004.79 1005.64 1006.76 1008.39 1008.59 1009.21 1009.91 1010.85 1011.73 1012.52 1013.47 1014.15 1014.86
Wind_Speed
2 6 7 8 8 7 7 7 7 5 6 7 7 7 7 7 7 6 5 5 5 4 4 4 3 3 3 2 3 3 4 3 4 2 1 1 2 1 2 3 2 1 1
15 11 9 7 7 8 9 8 7 8 7 8 7 8 9 8 8 8 7 6 6 5 5 4 4 3 3 2 2 3 4 3 4 4 2 2 1 1 2 3 3 4 3
12 10 8 9 9 10 10 9 9 9 8 8 9 10 10 10 10 9 9 9 8 7 6 6 5 5 4 3 2 3 3 3 2 5 4 1 2 1 2 3 4 4 4
11 9 9 9 9 9 10 10 11 11 11 10 11 11 11 11 11 10 9 7 7 6 6 6 6 7 5 5 4 4 4 5 6 7 4 3 2 2 2 2 2 3 4
8 7 9 5 6 6 8 10 10 10 10 11 11 11 11 11 10 13 12 11 9 7 6 6 7 8 10 8 6 6 6 4 6 6 4 3 3 2 2 2 1 1 3
4 5 4 4 6 8 9 10 9 9 10 10 11 12 12 9 13 18 14 10 9 8 8 7 6 10 9 11 10 12 11 9 5 4 2 3 3 3 3 3 3 2 1
4 4 5 5 7 9 10 9 10 10 9 11 12 11 12 12 5 6 9 7 8 7 8 7 8 7 9 7 9 12 9 9 11 8 7 5 5 6 5 4 2 2 2
4 2 3 4 6 6 7 9 9 8 11 10 10 11 12 11 20 23 24 14 12 10 10 9 8 7 6 8 10 8 9 8 7 5 7 7 4 7 5 4 4 4 2
4 2 1 2 4 3 5 7 6 5 7 8 6 10 12 10 16 25 25 15 13 12 9 8 6 6 7 9 7 8 7 5 5 7 7 10 11 13 9 6 3 2 2
0 2 2 3 4 5 5 4 3 4 7 5 8 9 10 9 18 23 20 9 10 9 8 9 13 11 13 14 10 9 10 8 10 7 6 6 8 9 13 1 6 3 2
3 1 3 3 4 5 5 2 2 4 4 5 6 5 8 9 9 20 23 12 11 11 10 8 9 16 17 16 11 10 10 11 10 7 6 5 5 5 5 5 5 3 3
2 3 4 5 4 3 5 4 4 3 4 4 5 5 3 4 8 15 20 17 12 11 12 8 7 15 18 16 12 11 12 10 7 7 6 5 6 6 6 6 6 6 4
2 4 4 5 5 4 3 5 4 3 4 6 5 6 5 5 5 11 18 14 12 9 8 11 13 18 17 14 14 15 14 7 8 7 7 6 6 5 4 3 4 5 6
4 5 5 5 5 4 3 3 3 4 4 5 4 5 3 3 5 5 8 8 8 6 6 6 11 13 14 11 11 9 8 8 9 9 8 6 4 4 4 5 4 4 2
4 5 5 5 5 5 5 5 4 6 6 6 6 5 4 5 7 8 10 10 11 10 9 6 6 7 9 8 8 8 7 7 8 7 6 6 5 5 4 5 3 3 4
5 5 4 4 5 5 5 5 9 11 7 7 9 6 6 11 13 17 18 14 13 16 7 10 9 9 11 12 10 9 8 10 8 8 7 6 5 7 6 4 3 4 4
5 5 4 5 5 6 4 5 7 3 9 10 10 10 11 11 13 16 18 17 16 13 10 10 11 12 12 12 12 11 11 9 8 8 8 7 6 6 6 4 4 4 5
5 8 5 6 5 5 4 5 4 5 6 6 6 10 10 10 9 11 14 14 5 8 8 10 11 12 12 12 12 12 10 9 9 8 7 8 8 7 6 5 6 6 5
5 5 4 5 4 4 4 4 5 6 8 8 8 3 7 2 4 4 15 8 10 11 11 10 10 11 12 11 11 11 11 11 10 9 8 8 8 7 7 7 6 8 7
5 5 5 4 4 4 4 5 6 7 8 8 8 8 3 4 5 5 6 9 10 10 11 11 11 10 11 12 13 11 10 10 11 11 10 9 8 9 9 8 7 6 7
5 6 8 6 5 5 5 6 7 8 8 9 9 8 11 8 9 8 8 9 11 10 11 13 12 11 10 12 13 13 14 11 10 8 6 9 9 10 9 7 7 7 6
5 6 6 7 7 7 8 8 8 9 10 10 11 9 13 9 8 9 9 10 11 12 10 11 11 12 13 14 15 14 15 15 11 11 11 11 10 10 8 8 7 7 8
5 6 7 7 8 12 10 10 10 11 12 12 11 9 8 9 9 11 10 10 10 11 11 11 13 13 13 14 15 16 16 15 14 11 12 11 10 9 8 9 9 7 8
6 7 8 8 9 10 11 11 12 12 12 12 12 10 10 10 10 13 13 10 10 10 11 12 12 17 16 16 14 14 13 14 13 12 16 12 11 10 9 8 9 10 9
6 7 7 9 11 12 12 12 13 14 13 12 12 10 10 10 10 11 10 10 11 10 12 13 13 19 23 25 21 22 20 22 16 15 12 13 14 15 11 9 11 10 9
7 8 8 9 11 12 13 14 14 13 13 11 12 11 10 9 9 9 9 10 10 10 11 9 12 18 22 21 24 25 21 24 20 19 13 11 11 10 9 10 14 10 10
Wind_Direction
24 213 208 214 198 181 189 201 202 186 200 196 186 179 181 181 178 175 179 175 180 164 162 174 190 179 162 169 168 150 151 142 121 150 181 150 135 130 37 29 27 85 42
229 205 203 202 194 193 206 203 188 202 199 202 183 188 188 185 179 181 181 182 188 186 190 170 186 180 171 151 158 175 167 145 132 145 138 148 110 58 65 63 35 62 82
210 200 187 202 194 199 203 201 194 197 203 195 188 193 197 188 189 193 189 184 189 186 187 187 189 178 187 169 150 166 167 158 140 144 130 117 80 38 113 72 59 46 59
191 198 213 213 214 209 204 201 198 199 200 198 198 203 199 191 195 185 187 187 190 188 188 192 190 191 184 177 164 162 152 142 131 122 107 113 115 57 61 99 105 49 45
183 196 219 221 214 201 203 209 206 198 203 200 193 203 203 193 192 189 186 182 188 188 186 186 202 192 192 182 155 158 142 117 129 126 127 135 137 152 159 103 110 110 59
179 221 230 198 196 203 207 210 206 204 200 193 202 203 198 204 203 192 186 186 181 186 186 185 188 206 190 182 168 162 158 144 137 134 125 153 151 145 163 141 138 163 176
199 220 225 222 216 215 216 209 211 207 194 210 210 199 199 207 164 183 209 184 198 194 186 181 185 193 183 168 171 170 174 179 173 151 157 182 162 176 148 133 157 155 158
107 161 215 229 238 229 222 217 215 204 211 215 214 206 201 191 172 173 186 197 192 196 190 187 187 176 199 172 155 164 175 181 182 183 175 164 161 160 159 142 144 118 111
53 12 302 238 265 241 237 239 231 212 214 218 216 215 208 194 195 175 183 194 193 192 177 179 154 158 193 184 159 155 159 149 127 151 141 149 147 157 149 128 137 139 128
255 294 287 274 267 272 266 255 225 222 231 211 220 216 215 203 187 186 191 189 182 181 168 169 172 159 184 187 171 169 156 161 147 135 125 127 150 167 167 177 161 138 137
196 9 353 327 295 284 283 261 259 250 246 239 236 224 218 210 192 186 190 185 193 176 183 180 202 183 178 189 184 178 180 150 154 144 144 151 170 181 182 205 193 162 162
326 336 328 313 301 299 286 288 274 251 242 235 232 229 213 180 181 193 193 201 200 189 184 189 190 180 178 181 177 183 148 146 143 149 159 180 188 204 210 210 205 218 228
273 302 304 303 285 267 262 286 302 260 253 257 237 247 220 174 183 198 199 203 185 185 178 178 179 177 180 177 191 179 155 159 158 163 179 190 200 206 180 192 209 228 238
304 306 311 295 291 271 255 247 256 266 264 270 245 236 232 183 203 194 193 197 185 187 154 175 176 180 181 192 189 187 181 175 175 178 186 193 167 181 193 181 185 188 228
282 285 287 279 273 267 245 243 237 237 223 241 235 224 204 216 219 192 184 190 198 197 147 166 164 172 179 188 194 195 192 175 174 173 173 177 190 191 188 179 170 167 202
302 306 292 286 273 254 254 268 227 243 276 282 293 271 224 229 183 191 198 200 193 162 170 188 184 188 191 192 193 193 196 190 182 171 165 181 184 195 188 174 167 198 197
268 281 279 272 274 267 245 246 270 265 241 249 249 250 245 254 209 197 195 191 183 166 199 191 192 190 193 193 193 192 194 198 184 180 165 181 187 198 179 182 185 197 213
295 276 277 285 281 280 262 258 250 260 274 275 243 235 249 252 238 222 201 157 144 210 203 199 202 196 194 193 193 195 190 179 186 175 177 186 184 194 192 193 192 205 205
308 303 308 302 295 283 284 271 258 264 267 270 275 235 227 285 254 222 162 189 189 196 206 212 204 208 194 194 192 191 187 180 183 174 176 199 187 191 207 206 197 190 166
323 302 294 309 310 302 277 266 259 250 254 257 257 254 177 151 205 194 194 207 196 197 200 209 206 198 202 195 186 180 182 175 180 181 181 192 189 192 209 199 193 188 195
338 330 329 323 315 299 287 276 271 261 258 255 250 240 196 198 222 205 199 202 212 212 199 205 204 200 194 194 191 182 183 179 170 158 178 199 185 193 202 195 190 199 179
340 332 327 320 313 310 305 297 281 272 269 264 261 248 200 216 228 220 210 212 214 220 210 206 206 203 197 194 189 187 185 178 176 175 185 205 189 192 187 188 182 187 174
333 327 325 322 318 314 308 302 295 287 280 269 260 254 231 221 230 233 223 217 216 216 218 214 208 207 202 200 195 189 181 179 171 178 187 196 190 182 180 180 178 172 181
340 340 329 317 310 301 293 290 288 276 270 271 266 246 233 229 227 233 234 234 230 219 221 219 215 208 200 197 193 189 185 172 167 185 189 189 184 171 172 173 172 184 184
335 320 314 309 308 305 298 290 281 276 271 268 262 246 237 233 229 225 228 229 232 233 228 222 218 209 199 193 186 180 169 161 175 194 194 189 178 170 171 180 178 183 172
327 312 316 319 319 316 310 303 292 281 272 263 271 246 232 225 219 222 229 230 232 231 225 216 208 203 193 188 182 173 163 169 179 188 188 180 170 168 172 177 178 175 178